Weather in Wayikkal

Sri Lanka     7°12′28″N   79°51′00″E
temp.,
°C
wind,
m/s
gust,
m/s
humid.,
%
clouds,
%
prec.,
mm/h
press.,
hPa
HPBL,
m
12 april, mon
mon1223:30+28se1170100 6.9 1012174
02:30+27sse1174100 2.3 1010155
05:30+27s448096 3.1 1011397
08:30+26s227899 0.4 1014305
11:30+27w227715 0.4 1013226
14:30+28wnw437180 0.1 1010556
17:30+28wnw227028 0.1 1010498
20:30+29w226871 1.1 1012404
13 april, tue
tue1323:30+28s2270100 3.6 1012325
02:30+27sse2276100 2.1 1010165
05:30+27se337898 2.8 1011365
08:30+27sse337785 0.0 1013449
11:30+27sw337633 0.0 1012418
14:30+28wsw337219 0.1 1010559
17:30+29wsw3370100 0.1 1009757
20:30+28ssw227363 0.9 1012528
14 april, wed
wed1423:30+28sse227549 1.5 1012364
02:30+27se33805 0.6 1010288
05:30+27sse338142 0.8 1010369
08:30+27sse227998 0.1 1013444
11:30+28sw337769 1.3 1012419
14:30+28wsw4474100 0.2 1009613
17:30+28sw4473100 0.2 1009717
20:30+29ssw447293 0.0 1011793
15 april, thu
thu1523:30+29ssw447327 0.4 1011805
02:30+28s4576100 1.1 1009666
05:30+28s457699 1.9 1010735
08:30+28s4577100 0.9 1013607
11:30+28sw447434 1.8 1012688
14:30+29sw5572100 0.1 1009899
17:30+29sw447198 0.1 1009796
20:30+29sw336918 0.0 1011782
16 april, fri
fri1623:30+29ssw4470100 0.0 1011829
02:30+28ssw447188 0.0 1009878
05:30+28s4572100 0.0 1010946
08:30+28s4473100 0.0 1013802
11:30+28sw447312 0.0 1012700
14:30+28sw557399 0.0 1008543
17:30+29sw55705 0.1 1009704
20:30+29ssw667011 0.0 1011916